Hourly Weather Abasár

Today, 8 March, Monday

Time Temperature Precipitation Wind Pressure Humidity
00:00 -1°C° 0 mm 2 mps 742 mmHg 66%
01:00 -1°C° 0 mm 2 mps 741 mmHg 67%
02:00 -1°C° 0 mm 2 mps 741 mmHg 67%
03:00 -1°C° 0 mm 2 mps 741 mmHg 67%
04:00 -1°C° 0 mm 2 mps 741 mmHg 68%
05:00 +1°C° 0 mm 1 mps 741 mmHg 68%
06:00 +1°C° 0 mm 1 mps 741 mmHg 68%
07:00 +1°C° 0 mm 1 mps 741 mmHg 68%
08:00 +2°C° 0 mm 2 mps 741 mmHg 62%
09:00 +4°C° 0 mm 2 mps 741 mmHg 57%
10:00 +5°C° 0 mm 2 mps 742 mmHg 51%
11:00 +5°C° 0 mm 3 mps 742 mmHg 49%
12:00 +5°C° 0 mm 3 mps 741 mmHg 48%
13:00 +7°C° 0 mm 3 mps 741 mmHg 47%
14:00 +7°C° 0 mm 2 mps 741 mmHg 48%
15:00 +6°C° 0 mm 2 mps 742 mmHg 49%
16:00 +6°C° 0 mm 2 mps 742 mmHg 51%
17:00 +5°C° 0 mm 2 mps 742 mmHg 58%
18:00 +4°C° 0 mm 2 mps 742 mmHg 66%
19:00 +1°C° 0 mm 3 mps 742 mmHg 74%
20:00 +1°C° 0.1 mm 3 mps 743 mmHg 74%
21:00 0°C° 0.1 mm 3 mps 743 mmHg 73%
22:00 -1°C° 0.1 mm 3 mps 744 mmHg 73%
23:00 -1°C° 0 mm 3 mps 744 mmHg 70%

Tomorrow, 9 March, Tuesday

Time Temperature Precipitation Wind Pressure Humidity
00:00 -1°C° 0 mm 2 mps 744 mmHg 67%
01:00 -1°C° 0 mm 2 mps 744 mmHg 64%
02:00 -1°C° 0 mm 2 mps 744 mmHg 65%
03:00 -2°C° 0 mm 2 mps 744 mmHg 66%
04:00 0°C° 0 mm 1 mps 744 mmHg 67%
05:00 0°C° 0 mm 1 mps 744 mmHg 67%
06:00 0°C° 0 mm 1 mps 744 mmHg 67%
07:00 0°C° 0 mm 1 mps 744 mmHg 67%
08:00 +1°C° 0 mm 1 mps 744 mmHg 60%
09:00 +1°C° 0 mm 2 mps 744 mmHg 53%
10:00 +3°C° 0 mm 2 mps 745 mmHg 45%
11:00 +3°C° 0 mm 2 mps 744 mmHg 44%
12:00 +5°C° 0 mm 1 mps 744 mmHg 43%
13:00 +6°C° 0 mm 1 mps 744 mmHg 41%
14:00 +5°C° 0 mm 1 mps 743 mmHg 41%
15:00 +5°C° 0 mm 1 mps 743 mmHg 41%
16:00 +5°C° 0 mm 1 mps 742 mmHg 42%
17:00 +4°C° 0 mm 1 mps 743 mmHg 47%
18:00 +3°C° 0 mm 1 mps 743 mmHg 53%
19:00 +2°C° 0 mm 1 mps 743 mmHg 59%
20:00 +2°C° 0 mm 1 mps 743 mmHg 60%
21:00 +1°C° 0 mm 1 mps 743 mmHg 60%
22:00 +1°C° 0 mm 1 mps 743 mmHg 61%
23:00 +1°C° 0 mm 1 mps 743 mmHg 61%

Day after tomorrow, 10 March, Wednesday

Time Temperature Precipitation Wind Pressure Humidity
00:00 +1°C° 0 mm 1 mps 743 mmHg 61%
01:00 +1°C° 0 mm 1 mps 743 mmHg 61%
02:00 +1°C° 0 mm 1 mps 742 mmHg 61%
03:00 +1°C° 0 mm 1 mps 742 mmHg 61%
04:00 0°C° 0 mm 1 mps 742 mmHg 61%
05:00 +1°C° 0 mm 1 mps 742 mmHg 60%
06:00 +1°C° 0 mm 1 mps 742 mmHg 59%
07:00 0°C° 0 mm 0 mps 743 mmHg 58%
08:00 +2°C° 0 mm 1 mps 743 mmHg 54%
09:00 +4°C° 0 mm 1 mps 743 mmHg 49%
10:00 +4°C° 0 mm 2 mps 743 mmHg 44%
11:00 +5°C° 0 mm 2 mps 743 mmHg 43%
12:00 +5°C° 0 mm 2 mps 743 mmHg 41%
13:00 +6°C° 0 mm 2 mps 743 mmHg 40%
14:00 +6°C° 0 mm 2 mps 743 mmHg 40%
15:00 +6°C° 0 mm 2 mps 743 mmHg 40%
16:00 +7°C° 0 mm 1 mps 743 mmHg 40%
17:00 +6°C° 0 mm 1 mps 743 mmHg 46%
18:00 +4°C° 0 mm 1 mps 743 mmHg 52%
19:00 +3°C° 0 mm 1 mps 744 mmHg 58%
20:00 +3°C° 0 mm 1 mps 744 mmHg 61%
21:00 +2°C° 0 mm 1 mps 744 mmHg 64%
22:00 -1°C° 0 mm 2 mps 745 mmHg 67%
23:00 +1°C° 0 mm 1 mps 745 mmHg 67%

11 March, Thursday

Time Temperature Precipitation Wind Pressure Humidity
00:00 +1°C° 0 mm 1 mps 745 mmHg 67%
01:00 0°C° 0 mm 1 mps 745 mmHg 67%
02:00 0°C° 0 mm 1 mps 745 mmHg 67%
03:00 -1°C° 0 mm 0 mps 745 mmHg 67%
04:00 -1°C° 0 mm 0 mps 745 mmHg 66%
05:00 -1°C° 0 mm 0 mps 745 mmHg 65%
06:00 0°C° 0 mm 1 mps 745 mmHg 64%
07:00 +1°C° 0 mm 1 mps 745 mmHg 63%
08:00 +2°C° 0 mm 1 mps 745 mmHg 58%
09:00 +2°C° 0 mm 2 mps 745 mmHg 53%
10:00 +4°C° 0 mm 2 mps 745 mmHg 48%
11:00 +4°C° 0 mm 2 mps 745 mmHg 47%
12:00 +5°C° 0 mm 2 mps 745 mmHg 47%
13:00 +5°C° 0 mm 3 mps 745 mmHg 47%
14:00 +5°C° 0 mm 3 mps 744 mmHg 50%
15:00 +5°C° 0 mm 3 mps 744 mmHg 53%
16:00 +5°C° 0 mm 3 mps 743 mmHg 56%
17:00 +6°C° 0 mm 2 mps 743 mmHg 61%
18:00 +5°C° 0 mm 2 mps 743 mmHg 65%
19:00 +4°C° 0 mm 2 mps 742 mmHg 70%
20:00 +3°C° 0 mm 3 mps 742 mmHg 70%
21:00 +3°C° 0 mm 3 mps 742 mmHg 71%
22:00 +3°C° 0 mm 3 mps 742 mmHg 71%
23:00 +3°C° 0 mm 3 mps 741 mmHg 71%

12 March, Friday

Time Temperature Precipitation Wind Pressure Humidity
00:00 +3°C° 0 mm 3 mps 741 mmHg 71%
01:00 +3°C° 0 mm 3 mps 741 mmHg 70%
02:00 +2°C° 0 mm 3 mps 741 mmHg 72%
03:00 +2°C° 0 mm 3 mps 740 mmHg 73%
04:00 +2°C° 0 mm 3 mps 740 mmHg 74%
05:00 +2°C° 0.7 mm 3 mps 740 mmHg 80%
06:00 +3°C° 0.7 mm 2 mps 741 mmHg 86%
07:00 +3°C° 0.7 mm 2 mps 741 mmHg 92%
08:00 +4°C° 0.1 mm 2 mps 741 mmHg 91%
09:00 +5°C° 0.1 mm 2 mps 741 mmHg 89%
10:00 +5°C° 0.1 mm 3 mps 742 mmHg 87%
11:00 +7°C° 0.1 mm 3 mps 742 mmHg 83%
12:00 +7°C° 0.1 mm 4 mps 742 mmHg 79%
13:00 +8°C° 0.1 mm 4 mps 742 mmHg 76%
14:00 +8°C° 0.1 mm 4 mps 742 mmHg 72%
15:00 +8°C° 0.1 mm 4 mps 741 mmHg 69%
16:00 +9°C° 0.1 mm 3 mps 741 mmHg 66%
17:00 +8°C° 0 mm 3 mps 741 mmHg 72%
18:00 +7°C° 0 mm 3 mps 741 mmHg 78%
19:00 +5°C° 0 mm 3 mps 741 mmHg 85%
20:00 +6°C° 0 mm 2 mps 741 mmHg 87%
21:00 +5°C° 0 mm 2 mps 742 mmHg 89%
22:00 +6°C° 0 mm 1 mps 742 mmHg 92%
23:00 +6°C° 0 mm 1 mps 741 mmHg 92%

13 March, Saturday

Time Temperature Precipitation Wind Pressure Humidity
00:00 +6°C° 0 mm 1 mps 741 mmHg 92%
01:00 +5°C° 0 mm 1 mps 741 mmHg 93%
02:00 +5°C° 0 mm 1 mps 741 mmHg 93%
03:00 +5°C° 0 mm 1 mps 741 mmHg 94%
04:00 +5°C° 0 mm 1 mps 740 mmHg 94%
05:00 +5°C° 0 mm 1 mps 740 mmHg 94%
06:00 +5°C° 0 mm 1 mps 740 mmHg 94%
07:00 +5°C° 0 mm 1 mps 740 mmHg 93%
08:00 +5°C° 0.2 mm 1 mps 740 mmHg 93%
09:00 +6°C° 0.2 mm 1 mps 740 mmHg 93%
10:00 +6°C° 0.2 mm 1 mps 740 mmHg 93%
11:00 +6°C° 0.8 mm 1 mps 740 mmHg 93%
12:00 +6°C° 0.8 mm 1 mps 739 mmHg 93%
13:00 +5°C° 0.8 mm 1 mps 739 mmHg 93%
14:00 +4°C° 0.4 mm 0 mps 739 mmHg 94%
15:00 +4°C° 0.4 mm 0 mps 739 mmHg 94%
16:00 +4°C° 0.4 mm 0 mps 739 mmHg 94%
17:00 +5°C° 0 mm 1 mps 739 mmHg 95%
18:00 +4°C° 0 mm 1 mps 739 mmHg 95%
19:00 +4°C° 0 mm 1 mps 739 mmHg 96%
20:00 +4°C° 0 mm 1 mps 739 mmHg 95%
21:00 +4°C° 0 mm 1 mps 740 mmHg 94%
22:00 +3°C° 0 mm 2 mps 740 mmHg 94%
23:00 +3°C° 0 mm 2 mps 740 mmHg 93%
Show more